Home > Time Zones > World Clock > Weather > Mali > Bamako > Past weeks

Flag for Mali Weather past 2 weeks in Bamako, Mali

Now
91 °F

Clear.


Feels Like: 90 °F
Forecast: N/A
Wind: 2 mph from Southwest

Location: Bamako / Senou

Current Time: May 28, 2015 at 10:50:56 PM

Latest Report: May 28, 2015 at 10:00 PM


Visibility: 10 mi

Pressure: 29.86 "Hg

Humidity: 32%

Dew point: 57 °F

Location of BamakoLocation

Historic Weather in Bamako — Graph

°F

Bamako temperature yesterday

Maximum temperature yesterday: 106 °F (at 2:30 PM)
Minimum temperature yesterday: 81 °F (at 5:30 AM)
Average temperature yesterday: 92 °F

Past Weeks' High & Low Weather Summary

 TemperatureHumidityPressure
High108 °F (May 15, 4:00 PM)89% (May 14, 2:30 AM)30.09 "Hg (May 14, 2:30 AM)
Low75 °F (May 14, 2:30 AM)10% (May 26, 5:00 PM)29.77 "Hg (May 15, 4:00 PM)
Average90 °F47%29.91 "Hg
* Reported May 13 9:00 PM — May 28 9:30 PM, Bamako, Weather by CustomWeather, © 2015

Note: Actual official high and low records may vary slightly from our data, if they occured in-between our weather recording intervals... More about our weather records

Advertising

Bamako weather history for previous 24 hours

 ConditionsComfort  
Time TempWeatherWind HumidityBarometerVisibility
9:30 PM
Thu, May 28
93 °FClear.3 mph28%29.86 "Hg10 mi
9:00 PM93 °FClear.3 mph26%29.86 "Hg10 mi
8:30 PM95 °FClear.3 mph23%29.86 "Hg10 mi
8:00 PM97 °FClear.2 mph20%29.83 "Hg10 mi
7:30 PM99 °FClear.3 mph21%29.83 "Hg10 mi
7:00 PM99 °FClear.3 mph21%29.80 "Hg10 mi
6:30 PM100 °FPassing clouds.5 mph18%29.80 "HgN/A
6:00 PM102 °FPassing clouds.5 mph18%29.80 "HgN/A
5:30 PM102 °FPassing clouds.5 mph17%29.80 "HgN/A
5:00 PM102 °FPassing clouds.6 mph20%29.80 "HgN/A
4:00 PM102 °FPartly sunny.6 mph20%29.80 "HgN/A
3:30 PM102 °FSunny.5 mph20%29.80 "Hg10 mi
3:00 PM104 °FSunny.3 mph19%29.83 "Hg10 mi
2:30 PM102 °FPassing clouds.7 mph23%29.83 "HgN/A
2:00 PM102 °FSunny.2 mph23%29.86 "Hg10 mi
1:30 PM99 °FSunny.3 mph29%29.86 "Hg10 mi
1:00 PM97 °FPassing clouds.7 mph32%29.89 "HgN/A
12:30 PM95 °FPassing clouds.6 mph39%29.89 "HgN/A
12:00 PM95 °FPassing clouds.8 mph41%29.92 "HgN/A
11:30 AM93 °FPassing clouds.9 mph44%29.92 "HgN/A
11:00 AM90 °FPassing clouds.10 mph52%29.92 "HgN/A
10:30 AM90 °FSunny.12 mph55%29.92 "Hg10 mi
10:00 AM88 °FPassing clouds.10 mph55%29.92 "HgN/A
9:30 AM86 °FPassing clouds.10 mph62%29.92 "HgN/A
9:00 AM86 °FSunny.12 mph62%29.95 "Hg10 mi
8:30 AM84 °FSunny.12 mph66%29.92 "Hg10 mi
8:00 AM84 °FSunny.9 mph66%29.92 "Hg10 mi
7:30 AM82 °FSunny.8 mph70%29.92 "Hg10 mi
7:00 AM82 °FSunny.7 mph66%29.92 "Hg10 mi
6:30 AM82 °FSunny.6 mph66%29.89 "Hg10 mi
6:00 AM82 °FClear.6 mph66%29.89 "Hg10 mi
5:30 AM82 °FClear.9 mph66%29.86 "Hg10 mi
5:00 AM84 °FClear.8 mph58%29.86 "Hg10 mi
4:30 AM82 °FClear.7 mph62%29.86 "Hg10 mi
4:00 AM84 °FClear.7 mph55%29.86 "Hg10 mi
3:30 AM84 °FClear.7 mph55%29.86 "Hg10 mi
2:00 AM84 °FClear.6 mph51%29.86 "Hg10 mi
1:00 AM84 °FClear.3 mph51%29.86 "Hg10 mi
12:30 AM84 °FClear.6 mph48%29.89 "Hg10 mi
12:00 AM82 °FClear.5 mph51%29.89 "Hg10 mi
11:30 PM
Wed, May 27
84 °FClear.3 mph45%29.89 "Hg10 mi
11:00 PM86 °FClear.5 mph38%29.92 "Hg10 mi
10:30 PM88 °FPassing clouds.6 mph29%29.89 "HgN/A
10:00 PM88 °FClear.9 mph19%29.89 "Hg10 mi
Weather by CustomWeather, © 2015

See weather overviewHow to use our weather pages